Wind_Speed
53 52 53 54 56 59 60 62 65 67 68 70 72 74 76 78 80 82 86 88 90 92 93 94 96 97 98 99 100 101 101 102 102 103 105 106 107 108 110 112 113 114 115 116 117 118 118 118 118 117 117 117 117 117 117 116 116 117 117 118 117 117 117 117 117 117 116 115 115 114 114 114 114 114 113 113 112 111 111 111 111 110 110 110 110
50 50 50 50 52 55 57 60 62 64 65 66 68 70 72 73 74 76 79 81 83 86 88 90 92 95 97 98 99 100 101 101 102 103 104 104 105 106 108 110 112 114 115 117 118 118 119 119 119 118 118 118 118 118 118 118 118 119 119 120 120 120 120 119 119 119 118 118 118 117 117 117 117 117 117 116 116 115 114 114 114 114 114 114 113
51 51 51 51 51 52 54 56 59 62 64 66 67 69 70 71 71 73 75 76 78 79 81 83 86 89 91 93 95 97 98 100 102 103 104 104 105 106 107 109 110 111 112 113 114 115 116 117 117 117 117 117 117 118 118 119 120 121 122 122 122 121 121 121 121 121 121 121 120 120 120 120 120 120 120 120 119 119 118 117 117 117 117 117 117
53 53 53 53 54 54 54 55 56 59 62 66 68 68 69 69 70 72 74 75 75 77 79 80 82 83 84 86 88 90 92 95 97 99 101 102 104 105 107 109 110 110 110 111 111 112 112 113 113 114 114 114 115 116 118 119 120 121 121 121 121 121 121 121 122 122 122 122 122 122 122 121 121 122 122 122 121 121 120 120 120 120 120 120 120
55 55 55 55 55 56 56 57 57 58 60 63 65 66 68 70 72 73 74 75 75 77 78 79 80 81 81 82 84 85 87 89 91 92 95 97 99 101 103 105 106 106 107 108 109 110 111 111 112 112 112 113 114 115 116 117 118 118 118 118 118 118 118 119 119 120 120 120 120 120 120 120 120 121 121 121 121 121 121 121 121 121 121 121 122
58 58 58 57 57 57 58 59 59 60 62 63 63 64 66 68 72 74 75 76 76 77 79 80 80 80 81 82 83 84 85 86 88 90 92 93 95 96 97 98 99 100 101 102 104 105 107 107 108 109 109 110 111 113 113 114 114 115 115 114 114 115 115 115 116 116 117 117 117 116 117 117 117 117 118 118 118 118 118 118 118 119 119 119 120
60 62 62 61 60 61 61 61 61 62 64 65 65 65 66 67 68 70 72 74 76 78 80 81 81 81 82 82 83 84 85 86 88 90 91 92 93 93 93 94 95 96 97 98 99 101 102 102 103 104 104 105 106 107 108 109 110 110 110 109 110 110 111 111 112 112 112 112 112 112 112 112 113 113 113 114 114 114 114 114 114 115 115 115 116
61 63 65 65 64 64 64 65 65 65 66 67 67 68 68 69 69 69 70 71 73 76 78 80 81 82 83 84 84 85 86 87 89 91 92 92 92 92 93 93 94 95 96 97 98 98 99 100 100 100 101 102 102 103 104 105 105 105 104 105 105 106 106 106 106 106 107 107 107 108 108 108 108 108 109 109 109 110 110 110 111 111 111 111 112
64 64 66 68 68 67 67 68 69 69 69 70 70 70 70 70 71 71 71 72 73 74 75 76 78 80 81 83 84 86 87 89 91 92 92 93 93 93 94 94 95 96 96 97 97 98 98 98 99 99 99 100 101 101 102 102 102 102 102 102 103 103 103 102 102 103 104 104 104 105 105 105 105 105 105 106 106 106 107 107 108 108 108 108 108
69 68 68 69 71 71 71 71 72 73 74 73 73 73 73 72 72 72 73 74 75 75 76 76 77 77 78 79 81 83 86 88 90 92 93 93 94 94 95 95 96 96 97 97 97 97 98 98 98 98 99 100 100 101 101 101 101 101 101 101 101 101 101 100 100 101 101 102 102 103 103 103 103 103 103 103 103 104 104 105 105 106 106 106 106
76 75 74 73 74 74 74 74 75 77 77 77 77 76 76 75 74 75 75 76 77 77 78 79 79 79 78 79 80 81 83 84 86 88 90 92 93 94 95 96 97 97 97 97 97 98 98 98 98 99 100 101 102 102 102 102 102 101 101 100 100 100 99 99 100 100 101 101 101 101 101 102 102 102 102 102 101 102 102 102 103 103 103 104 104
82 81 81 80 79 79 78 78 78 79 81 81 81 80 80 79 78 78 78 79 79 79 80 80 81 81 82 81 81 82 83 83 83 85 86 88 90 92 93 94 95 96 96 97 97 99 99 99 100 100 100 101 103 103 103 102 102 101 100 100 100 99 99 99 100 101 101 100 100 101 101 101 101 101 101 101 101 101 101 101 102 102 102 102 103
84 85 85 86 86 85 84 83 82 82 83 85 85 85 84 83 82 82 82 82 82 82 82 83 83 84 84 84 84 85 85 85 85 86 86 87 88 89 90 91 91 92 93 94 96 98 99 99 100 100 100 101 103 104 103 102 102 101 101 101 101 100 100 100 100 101 101 100 100 100 100 101 101 101 101 101 101 102 102 102 102 102 102 102 102
85 85 86 87 89 89 89 88 87 86 86 87 88 88 88 88 87 86 86 86 86 86 85 86 86 87 87 87 87 87 87 88 88 89 90 90 91 91 90 90 90 90 91 91 93 94 95 96 97 97 98 99 100 102 103 102 102 102 102 102 101 101 101 101 102 102 102 101 101 101 101 102 102 102 102 102 102 103 103 103 103 103 103 103 103
84 86 86 87 88 90 91 92 91 91 90 90 91 90 91 91 91 90 90 90 90 90 90 89 90 91 91 90 90 90 90 90 90 91 92 93 94 94 94 93 93 92 92 93 93 93 93 93 93 93 94 95 97 99 100 100 100 101 101 101 101 101 102 102 103 103 102 103 103 103 103 103 104 104 104 104 104 104 104 104 104 104 104 104 104
83 85 87 88 88 89 91 93 94 94 94 94 94 94 94 94 95 94 94 94 94 94 94 94 94 94 94 94 94 94 94 94 94 94 95 95 96 96 96 96 96 96 96 96 96 96 95 95 95 94 94 94 95 96 97 97 97 97 98 100 100 101 101 102 102 102 102 103 103 104 104 105 105 105 105 106 106 106 106 106 106 106 106 106 106
81 83 85 87 88 89 90 92 94 95 95 96 97 97 97 97 98 97 97 97 97 97 97 98 99 98 98 98 98 98 98 98 99 99 98 98 97 97 97 97 97 98 98 99 100 99 99 98 97 97 96 96 96 96 96 96 96 95 95 96 98 99 100 101 101 100 101 101 102 102 103 104 105 106 106 106 107 107 107 107 108 108 108 108 108
80 81 83 85 87 89 90 91 92 94 96 97 98 99 99 99 100 100 100 99 99 99 100 101 102 103 103 102 102 102 103 103 103 102 102 100 99 99 99 99 99 100 100 101 101 101 101 101 100 99 98 98 98 98 98 98 98 96 95 95 96 97 98 99 99 99 99 100 100 100 101 102 103 104 104 105 105 105 106 106 107 107 108 108 109
79 79 81 83 85 87 88 90 91 92 94 96 98 99 100 100 101 101 101 101 101 101 102 103 104 105 106 106 106 106 107 107 107 106 105 103 102 102 102 102 103 103 103 103 103 104 104 104 103 102 101 100 100 100 100 100 100 99 97 96 96 97 97 98 98 98 98 99 99 100 101 101 102 102 102 103 103 104 104 104 105 105 106 107 107
78 78 79 81 83 84 86 88 89 90 91 93 95 97 99 100 100 101 101 101 102 102 103 104 105 106 107 108 108 109 110 111 111 110 109 107 107 106 106 106 107 107 107 106 107 107 107 107 107 106 105 103 103 102 103 103 103 102 101 99 99 99 99 98 98 97 97 98 99 100 101 101 101 101 101 102 102 103 103 103 104 104 105 106 106
76 77 78 79 81 82 84 85 87 88 89 91 93 94 96 98 99 99 100 100 100 101 102 104 105 107 108 109 109 110 111 112 112 112 112 112 111 110 110 110 111 111 111 111 110 110 110 111 110 110 108 107 106 106 106 106 106 105 104 103 102 102 102 102 101 100 99 99 100 101 102 102 102 102 102 102 102 103 103 103 104 105 106 106 107
75 76 77 78 79 81 82 84 85 87 88 90 92 93 94 95 97 98 98 98 99 99 100 102 103 105 106 108 109 110 111 112 113 113 113 114 114 114 113 113 113 114 115 115 114 114 115 115 114 114 112 111 110 109 109 109 109 108 107 106 105 106 106 106 105 104 103 103 103 104 104 105 105 104 104 104 104 104 105 105 106 107 108 108 109
74 75 75 76 77 78 80 81 84 86 87 89 90 92 94 95 96 97 97 97 97 97 98 99 100 102 103 105 106 108 109 110 111 112 113 114 114 115 115 115 115 116 117 117 118 118 118 118 118 117 116 115 113 112 112 111 111 111 111 110 109 109 109 109 109 108 107 107 107 107 107 108 108 108 107 107 107 107 107 108 109 110 111 111 112
75 75 75 75 75 76 77 79 81 84 86 88 89 91 93 94 95 96 96 96 96 97 97 97 98 99 101 102 103 104 106 107 108 109 110 112 113 114 115 115 116 116 117 118 119 120 121 121 121 120 119 118 117 115 115 114 113 113 113 113 112 112 112 112 113 112 112 112 111 111 111 112 112 111 111 110 110 110 110 111 112 113 114 115 116
75 75 75 76 76 76 76 77 79 82 84 86 88 89 91 92 93 94 95 95 96 96 96 97 98 98 99 100 101 102 103 104 105 106 108 109 110 111 112 113 114 115 116 118 119 121 122 122 123 122 122 121 120 119 118 117 116 116 116 115 114 114 114 115 115 116 116 116 116 116 116 116 116 115 114 114 114 114 114 114 115 116 118 119 120
76 76 77 77 78 78 77 77 78 80 82 84 86 87 89 90 91 92 93 94 95 95 95 96 97 97 98 99 100 101 101 102 103 104 105 106 107 108 109 110 111 112 114 115 117 119 121 122 122 123 123 123 123 122 121 121 120 119 119 118 117 117 117 117 118 118 119 120 120 120 120 120 120 119 118 118 118 118 118 118 119 120 121 122 124
75 76 77 78 78 79 78 79 79 80 81 82 83 85 86 87 89 91 92 92 93 94 94 95 95 96 97 98 99 100 100 101 102 103 104 105 105 106 107 108 109 110 111 112 115 117 118 119 120 121 122 122 123 124 123 123 123 122 122 122 121 121 121 121 121 121 122 122 123 123 123 123 123 122 121 121 121 121 122 122 122 123 124 125 127
75 76 76 77 78 78 79 79 80 80 81 82 83 84 84 86 87 89 90 91 91 92 93 94 94 95 95 96 97 98 99 100 100 101 103 104 105 105 106 107 107 108 109 110 112 114 115 116 117 118 119 120 121 122 122 123 123 123 123 123 123 123 123 123 123 123 123 123 123 123 123 123 123 123 122 121 120 121 122 122 123 124 125 126 127
76 76 76 77 77 77 78 79 80 81 81 83 84 84 84 85 86 87 89 90 90 90 91 92 93 94 95 95 95 96 97 98 99 100 101 103 104 105 106 106 107 108 109 110 111 112 114 114 115 116 117 118 119 120 121 121 122 123 123 123 123 123 123 123 123 123 123 123 123 123 123 122 122 121 120 119 118 119 119 120 121 122 123 124 124
76 76 76 76 77 77 78 78 79 80 81 82 84 85 85 85 86 87 88 89 89 90 91 91 92 92 93 94 95 96 97 98 99 100 101 102 104 105 106 107 108 109 110 111 112 113 114 115 115 116 117 118 119 120 120 121 122 123 123 123 123 123 123 123 123 123 123 123 123 123 123 123 123 122 120 119 118 118 118 119 120 121 121 122 121
76 75 74 75 76 77 77 78 78 79 80 82 83 84 86 86 86 86 87 88 88 89 90 92 93 93 93 93 94 95 96 98 100 101 102 103 104 105 106 108 109 110 111 112 114 115 115 116 117 117 118 119 120 120 122 122 123 124 124 124 124 124 125 125 125 125 125 125 125 125 125 125 124 123 122 121 120 120 120 121 121 121 122 122 121
77 75 74 73 74 76 76 77 78 79 79 80 81 82 84 85 85 86 87 87 88 89 90 91 93 94 94 95 95 95 96 97 99 101 103 105 106 106 107 109 110 111 112 113 115 116 117 117 118 119 120 120 121 122 123 124 125 125 125 126 126 126 126 126 127 127 127 127 128 128 128 128 127 126 125 124 123 123 123 123 123 124 124 123 123
78 76 74 74 74 75 75 75 76 77 78 79 80 80 81 82 83 84 85 86 88 89 90 91 92 93 94 95 95 96 97 98 99 100 102 104 106 108 109 110 111 113 114 115 116 117 118 119 120 120 121 122 123 124 125 126 126 127 127 127 128 128 128 128 128 129 129 129 130 130 130 130 130 129 128 127 127 126 126 126 126 126 126 125 125
78 76 74 74 74 73 73 73 73 75 76 77 78 78 78 79 80 80 81 83 85 87 89 90 91 92 93 93 94 95 96 97 99 100 101 102 104 106 108 110 111 113 114 116 117 118 119 120 121 121 122 123 124 125 127 127 128 128 128 128 129 129 129 129 130 130 131 131 131 131 131 131 131 131 130 130 129 129 129 129 128 128 127 127 127
77 75 74 74 73 72 71 72 72 73 74 75 75 75 75 76 77 77 78 79 81 83 85 87 88 90 90 91 92 94 95 96 97 99 100 101 101 103 105 106 109 111 113 115 117 118 120 121 122 123 123 124 126 127 128 129 129 129 129 129 129 129 130 130 130 131 131 132 132 132 132 132 132 132 131 131 130 130 130 129 129 128 127 127 127
76 74 73 73 72 71 71 71 71 72 73 73 73 72 72 72 72 73 74 75 77 79 80 82 84 86 87 88 90 92 94 95 95 96 97 98 98 99 100 102 103 105 108 110 113 115 117 119 121 122 124 125 126 128 129 129 129 129 129 129 129 129 130 130 130 130 131 131 131 131 131 131 131 131 130 130 130 129 129 128 127 127 126 126 125
76 74 73 72 71 70 70 70 70 71 72 72 70 69 68 68 70 71 72 73 75 76 77 79 81 83 85 86 88 90 92 93 93 92 92 93 93 94 95 96 98 99 101 102 104 107 109 112 115 118 120 122 125 126 127 128 128 128 128 128 128 128 129 129 129 129 130 130 130 130 129 129 129 128 128 128 127 127 126 126 125 125 124 123 123
75 73 72 71 71 70 69 69 69 70 70 69 68 67 66 66 68 69 71 72 73 73 75 77 79 81 83 84 87 89 90 90 90 89 88 88 88 89 90 91 93 94 95 96 97 99 100 102 105 108 111 114 117 120 122 123 124 125 125 125 126 126 127 127 127 128 128 128 128 127 126 126 125 125 125 125 124 123 123 122 122 121 121 120 120
73 71 70 69 69 68 67 67 67 67 67 66 65 64 64 64 65 67 68 69 70 71 72 74 77 79 81 82 84 86 86 86 85 85 84 83 83 84 85 87 88 89 90 91 92 93 94 95 97 99 101 104 107 110 112 115 117 119 120 120 121 123 123 124 124 124 124 124 123 123 122 122 122 122 121 120 120 119 119 119 118 117 117 117 118
70 69 67 65 66 66 66 65 65 65 64 63 62 61 61 62 63 64 65 66 68 69 70 72 74 77 78 78 80 81 81 81 80 81 81 80 80 80 81 82 83 85 85 86 87 88 89 90 91 93 94 97 99 101 103 105 108 110 111 112 114 115 116 117 117 118 117 117 116 116 116 116 117 116 116 116 115 115 115 115 114 113 113 114 114
67 66 64 63 63 64 64 64 64 63 62 61 60 60 60 61 62 63 64 65 66 67 68 70 72 73 73 74 75 76 77 76 76 77 77 77 76 76 77 78 79 80 81 81 83 83 84 85 86 87 89 91 92 94 96 98 99 101 103 104 105 106 107 108 109 109 109 109 109 109 110 111 111 111 111 111 111 111 111 110 110 110 110 110 110
64 63 62 60 60 62 63 62 62 62 61 61 60 59 60 62 63 63 63 64 64 64 65 67 68 68 68 69 71 72 72 71 71 72 73 73 73 73 73 74 74 75 76 77 78 79 80 81 82 83 85 86 88 90 92 93 94 96 97 97 98 99 100 101 101 102 103 104 104 105 106 107 108 108 108 108 108 108 107 107 106 107 107 107 107
60 60 60 59 58 59 61 61 60 60 60 60 59 59 60 62 62 62 61 61 60 61 62 64 64 64 65 65 67 68 68 68 67 67 68 69 70 70 70 70 71 72 73 74 75 76 77 78 79 81 82 83 85 87 88 89 90 92 93 93 93 94 95 96 97 98 99 100 101 102 103 105 105 106 106 105 105 104 103 103 103 103 104 104 103
57 57 57 57 56 57 59 59 58 58 58 57 57 58 59 59 59 59 58 57 57 58 60 60 61 61 62 62 63 64 65 65 65 64 65 65 66 68 68 69 69 69 70 71 72 73 74 75 77 78 79 80 82 83 84 85 86 88 89 90 90 90 91 93 94 95 96 97 98 99 101 102 103 103 102 101 100 100 99 99 99 99 99 99 98
56 55 55 55 54 55 55 56 55 55 55 55 55 55 55 56 56 57 56 55 56 56 56 57 58 59 60 60 60 60 61 62 62 62 62 62 63 64 65 66 67 67 68 68 69 70 71 72 74 75 76 77 78 79 80 81 82 83 85 86 86 87 87 88 90 91 92 93 94 96 98 99 99 98 98 97 96 96 97 97 97 96 95 95 94
54 54 54 53 53 53 52 52 52 52 52 53 53 52 53 54 55 54 53 54 54 54 54 54 55 56 57 57 58 58 58 59 59 59 60 60 60 60 61 62 64 65 66 66 67 67 68 69 71 72 73 74 74 75 76 78 79 80 81 82 82 83 83 84 85 86 87 89 90 92 93 94 94 94 94 94 94 94 94 94 94 94 93 93 92
53 52 52 51 51 51 51 50 51 50 50 51 51 50 51 53 53 52 51 52 52 51 51 52 52 53 54 54 55 55 56 56 57 57 57 57 57 58 58 59 61 62 63 64 65 65 66 66 67 68 69 70 71 72 74 75 76 77 77 78 79 79 80 81 81 82 84 86 87 89 89 89 90 91 91 91 91 92 92 92 92 92 92 91 91
51 50 50 50 50 50 49 49 49 49 49 49 48 48 49 50 49 49 50 50 49 49 50 50 50 51 51 52 52 53 53 54 54 54 54 55 55 55 56 57 58 59 61 62 63 63 64 64 65 65 66 67 68 70 71 72 72 74 75 76 77 78 79 79 80 81 81 82 84 86 86 87 87 88 89 89 89 89 89 90 90 89 89 89 88
49 49 49 48 49 48 48 48 47 47 47 47 47 47 47 46 46 46 47 48 48 48 48 48 49 49 48 49 50 50 51 51 51 52 52 52 53 53 54 54 56 57 58 59 60 61 61 62 62 63 64 65 66 67 68 69 70 71 73 74 75 76 77 78 78 79 79 79 81 83 84 85 85 86 86 87 87 87 86 86 86 86 86 85 84
48 48 48 47 47 47 47 47 46 45 45 45 45 45 45 44 44 44 45 46 47 47 46 47 47 47 47 47 48 49 49 49 49 50 50 50 51 51 51 52 53 54 55 56 57 58 59 60 61 62 62 63 65 65 66 66 68 69 70 71 72 73 74 74 75 75 75 76 77 78 80 81 82 83 83 83 83 83 83 82 82 81 81 80 80
47 47 47 46 46 46 46 45 44 44 44 44 44 44 43 43 43 43 44 45 46 45 44 45 45 45 45 45 46 47 48 48 48 48 49 49 49 50 50 51 51 52 53 54 55 56 57 58 59 60 60 61 62 63 64 65 66 66 67 68 69 69 70 70 70 70 71 72 73 75 76 78 79 79 80 80 79 78 77 77 77 77 76 76 76
Wind_Direction
286 286 285 282 279 275 272 269 267 264 262 261 260 259 258 257 256 256 255 255 254 254 254 254 254 254 254 254 254 254 254 254 254 254 254 253 253 253 254 254 254 254 254 254 254 255 255 255 256 256 257 257 258 258 259 259 259 259 259 259 259 259 260 260 260 260 260 260 261 261 261 261 261 261 261 261 261 261 261 261 261 261 260 260 260
282 281 280 279 277 274 272 270 268 266 265 264 262 261 260 259 258 257 257 257 256 256 256 255 255 254 254 254 254 254 255 255 255 255 255 254 254 254 254 254 254 254 254 254 254 255 256 256 256 257 257 258 258 258 259 259 259 259 259 259 259 259 260 260 260 260 261 261 261 261 261 261 261 261 261 261 261 261 261 261 261 261 261 261 261
278 275 274 272 271 269 268 266 265 265 264 263 262 261 261 261 260 259 259 258 258 257 257 256 255 255 255 255 255 255 255 255 255 255 255 255 255 255 255 255 255 255 255 255 255 256 256 257 257 257 258 258 258 258 258 258 258 258 258 259 259 260 260 261 261 261 261 261 261 261 261 261 262 262 262 262 262 262 262 261 261 261 261 261 261
277 275 273 271 270 268 267 265 264 262 261 260 260 259 260 260 260 260 259 259 258 257 257 256 256 255 255 255 255 255 255 255 255 255 256 255 255 255 255 255 256 256 256 257 257 257 257 257 258 258 258 258 258 258 258 258 258 258 259 259 260 260 261 261 261 261 261 261 262 262 262 262 262 262 262 262 262 262 262 262 262 262 262 262 262
278 276 274 273 272 271 269 267 265 264 262 261 260 259 258 258 257 257 257 257 257 257 257 257 257 257 256 256 255 255 255 255 255 255 255 255 255 255 255 256 256 257 257 257 257 257 257 257 258 258 258 258 258 258 258 258 259 259 260 260 260 260 261 261 261 261 261 261 262 262 262 262 262 262 262 262 262 262 262 262 262 262 262 262 262
280 278 276 275 274 272 271 269 267 266 265 263 262 260 259 257 257 256 256 256 256 256 256 256 256 256 256 256 255 255 255 255 255 255 255 255 255 255 255 255 256 257 257 257 257 257 257 257 257 257 258 258 258 258 259 259 259 260 260 260 260 261 261 261 261 261 261 262 262 262 262 262 262 262 262 262 262 262 262 262 262 262 262 262 262
281 280 279 277 275 274 272 270 268 267 265 264 264 262 261 260 259 259 258 257 256 256 255 255 255 255 256 256 255 255 255 256 255 255 255 255 255 255 255 256 256 256 256 256 257 257 257 257 257 257 258 258 258 258 258 259 259 259 260 260 260 260 260 260 261 261 261 262 262 262 262 262 262 262 262 262 262 262 262 262 262 262 262 262 262
279 278 278 277 275 273 272 271 269 267 266 265 264 263 262 262 261 261 260 259 258 257 257 256 256 255 255 255 255 255 255 255 255 255 255 255 255 255 255 255 255 255 256 256 256 257 257 258 258 258 258 258 258 259 259 259 259 259 260 260 260 260 260 260 261 261 261 262 262 262 262 262 262 262 262 262 262 262 262 262 262 262 262 262 262
279 276 275 275 274 273 272 271 270 268 267 266 265 263 262 262 261 261 261 260 260 259 259 258 258 257 256 256 256 255 255 255 255 255 255 255 255 255 255 255 255 255 255 255 256 256 257 257 258 258 258 258 258 259 259 259 259 260 260 260 260 260 261 261 261 262 262 262 262 262 262 262 262 262 262 262 262 262 262 262 262 262 262 262 262
280 278 275 274 273 273 272 271 270 269 267 266 265 264 263 262 261 261 260 260 259 259 259 259 259 258 258 257 257 256 256 256 256 256 256 256 256 255 255 255 255 255 255 255 255 256 256 257 257 258 258 258 258 258 258 259 259 259 259 259 260 260 261 261 261 262 262 262 262 262 262 262 262 262 261 261 261 261 261 262 262 262 262 261 261
280 278 276 274 272 271 270 270 269 269 268 267 266 265 264 263 262 261 260 260 260 259 258 258 258 258 258 258 258 258 257 257 257 257 257 257 257 256 256 256 256 256 256 256 256 256 256 256 256 257 257 257 258 258 258 258 258 259 259 259 260 260 260 260 260 260 260 261 261 261 261 262 262 261 261 261 261 261 261 261 261 261 261 261 261
279 278 276 274 272 270 269 268 267 268 268 268 266 265 264 263 262 261 261 260 260 259 259 258 258 258 258 257 258 258 258 258 258 258 258 258 258 258 257 257 257 257 257 257 257 257 257 256 256 256 257 257 258 258 258 258 259 259 259 259 259 259 259 259 259 260 260 260 261 261 261 261 261 261 261 261 261 261 261 261 261 261 261 261 261
276 275 275 275 273 272 270 268 266 265 266 266 266 266 265 264 262 262 261 260 260 259 259 259 259 258 258 257 257 257 258 258 258 259 259 259 259 259 258 258 258 258 258 258 258 258 258 257 257 257 257 258 258 259 259 259 259 259 259 259 259 259 259 259 259 260 260 260 260 261 261 261 261 262 262 262 262 262 261 261 261 261 261 261 261
271 271 272 272 272 272 271 270 268 266 265 264 264 265 265 264 263 262 262 261 260 260 259 259 259 259 258 257 257 257 257 257 257 257 258 258 259 259 259 259 259 259 259 258 258 258 258 258 258 258 258 259 259 259 259 259 259 259 259 259 259 259 259 260 260 260 260 260 260 261 261 261 261 261 262 262 262 262 262 262 262 262 262 262 262
269 269 268 268 268 269 269 269 268 267 265 264 263 263 262 263 263 262 262 261 261 260 260 259 259 259 258 258 258 257 257 257 256 256 256 256 257 258 258 259 259 259 259 260 260 260 260 260 260 259 259 259 259 259 260 260 260 260 260 260 260 260 260 260 260 260 260 261 261 261 261 261 261 261 261 262 262 262 262 262 262 262 262 262 262
268 268 267 267 266 266 266 266 266 266 265 265 264 262 261 260 260 260 260 260 260 260 260 260 259 259 259 258 258 258 257 257 256 256 256 256 256 256 257 258 258 259 259 259 259 260 260 260 260 260 260 260 260 260 261 261 260 260 260 260 260 260 260 260 260 260 261 261 261 261 261 262 262 262 262 262 262 262 262 262 263 262 262 262 262
269 268 267 266 266 265 264 264 265 265 265 264 264 263 262 261 260 259 258 258 258 258 258 259 259 259 259 259 258 258 258 258 257 257 257 257 257 257 257 258 258 258 259 258 258 258 259 259 259 260 260 260 261 261 261 262 261 261 261 261 260 260 260 260 261 261 261 261 261 261 261 262 262 262 262 263 263 263 263 263 263 263 263 263 263
271 269 268 267 266 266 265 264 264 264 264 264 263 263 263 262 262 261 260 259 258 258 257 257 257 258 259 259 259 259 259 259 258 258 258 258 258 258 258 258 258 258 258 258 258 258 258 258 258 258 258 259 259 260 261 261 261 261 261 261 261 260 260 260 260 260 261 261 261 261 261 261 262 262 262 263 263 263 263 264 264 264 264 264 264
272 270 269 268 267 266 266 265 264 264 263 263 263 263 263 262 262 262 261 261 260 259 258 258 257 256 257 257 258 258 259 259 259 259 259 259 258 258 258 258 258 258 258 258 259 259 259 259 258 258 257 258 258 259 259 260 260 260 260 260 260 260 260 260 260 260 260 260 261 261 261 261 261 262 262 263 263 263 264 264 264 264 264 264 264
274 272 270 269 268 267 266 266 266 265 264 264 264 264 264 264 263 263 262 261 261 260 260 259 259 258 257 256 256 256 257 258 259 259 259 259 259 259 259 258 258 258 258 258 258 259 259 259 259 259 259 258 258 258 259 259 259 259 259 258 258 259 259 259 259 259 259 260 260 260 260 261 261 261 262 262 263 263 264 264 264 264 264 265 265
276 274 272 270 269 268 268 267 267 267 266 266 265 265 265 265 265 264 263 263 262 261 261 260 260 260 259 258 257 257 256 257 257 258 258 258 258 258 258 259 259 259 259 259 259 259 259 259 259 260 259 259 259 259 259 260 260 260 259 259 258 258 258 258 258 258 259 259 259 260 260 260 261 261 261 262 262 263 263 264 264 264 264 264 265
276 275 273 272 271 270 269 268 268 267 267 267 267 266 266 265 265 265 264 264 263 262 261 261 261 260 260 260 260 259 258 257 257 257 257 258 258 258 258 258 258 259 260 260 261 261 260 260 260 260 260 260 260 259 260 260 260 260 260 260 259 259 259 258 258 258 259 259 259 260 260 261 261 261 261 262 262 263 263 264 264 264 265 265 265
278 276 275 273 272 271 270 270 269 268 267 266 266 267 267 267 266 266 265 265 264 263 262 262 261 261 261 261 261 260 260 260 259 259 258 258 258 258 258 258 258 258 259 259 260 260 261 261 261 261 261 261 260 260 260 260 260 260 260 260 260 259 259 259 259 259 259 259 259 260 261 261 261 262 262 262 262 263 263 264 264 265 265 265 266
280 279 277 276 274 272 270 269 268 268 267 266 266 265 266 266 266 266 266 266 266 265 264 263 262 262 262 261 261 261 261 261 261 260 260 259 259 259 259 259 258 258 258 258 259 259 260 261 261 261 262 262 261 261 261 260 260 260 260 260 260 260 260 260 260 259 259 259 259 259 260 260 261 262 262 262 263 263 264 264 265 266 266 266 266
281 280 279 277 275 273 271 269 268 267 267 267 266 266 265 265 265 266 266 266 266 266 265 265 264 263 263 262 262 262 262 262 261 261 261 261 260 260 260 260 259 259 259 258 258 259 259 260 260 261 262 262 262 262 262 261 261 261 261 260 260 260 260 260 260 260 260 260 260 260 260 260 261 261 262 263 263 264 264 264 265 266 266 267 267
281 280 279 277 276 275 273 271 270 269 268 267 267 267 266 266 266 265 265 265 265 265 264 264 264 263 263 263 263 263 262 262 262 262 261 261 261 261 260 260 260 260 260 259 259 259 259 259 260 261 261 262 262 263 263 263 262 262 262 262 261 261 261 261 260 260 260 261 261 261 261 261 261 262 262 263 264 264 264 264 265 265 266 266 267
279 278 277 276 276 275 274 273 271 270 269 268 267 267 266 266 266 266 265 265 264 264 264 263 263 262 262 262 262 262 262 262 262 262 262 262 262 261 261 261 261 260 260 260 260 260 260 260 260 261 261 261 262 262 263 263 263 263 263 263 263 263 262 262 262 262 262 262 262 262 262 263 263 263 263 264 264 265 265 265 265 265 265 266 266
279 277 276 275 274 274 273 273 272 271 270 269 268 268 267 266 266 266 266 265 265 264 264 264 263 263 262 261 261 261 261 261 261 261 261 261 261 261 261 261 261 261 260 260 260 260 261 261 261 261 261 262 262 262 263 263 264 264 264 264 264 264 264 264 264 264 264 264 264 264 264 264 265 265 265 264 265 265 265 266 266 266 266 266 266
282 280 278 276 274 273 272 272 271 271 270 270 269 268 267 266 266 266 266 266 266 265 265 264 264 263 263 262 262 261 261 261 261 260 260 260 261 261 261 261 261 261 261 260 260 260 260 261 261 261 261 262 262 262 263 263 264 264 264 264 265 265 265 265 265 265 266 266 266 266 266 266 266 266 266 266 266 266 266 266 266 266 267 267 267
284 282 280 279 277 275 273 272 271 270 270 269 269 268 268 267 266 265 265 265 265 265 265 265 264 264 263 263 263 262 262 262 261 261 260 260 260 260 260 260 260 260 260 260 260 260 260 260 260 260 261 261 261 262 262 262 263 263 264 264 264 265 265 265 266 266 266 266 267 267 267 267 267 268 268 268 268 267 267 267 267 267 268 268 269
285 283 281 279 278 277 275 274 272 271 269 268 268 267 267 267 267 266 266 265 265 265 265 265 265 264 264 263 262 262 262 262 262 262 262 261 261 260 260 260 260 260 259 259 260 260 260 260 260 260 260 260 261 261 261 262 262 262 263 263 264 264 265 265 265 266 266 267 267 267 268 268 268 269 269 269 269 268 268 268 268 268 269 269 269
286 284 282 280 279 277 276 275 274 272 271 269 268 267 267 267 267 267 267 267 267 266 265 265 264 264 264 264 263 262 261 261 260 260 260 261 261 261 260 260 260 259 259 259 259 259 259 259 260 260 260 260 260 260 261 261 261 262 262 263 263 264 264 265 265 266 266 266 267 267 268 268 269 269 269 269 269 269 269 269 269 269 269 269 270
287 285 283 282 279 277 276 275 274 274 272 271 270 268 267 267 266 266 267 267 267 267 267 266 266 265 265 264 264 264 263 262 261 260 259 259 259 259 259 259 259 259 259 259 259 259 259 259 259 259 259 260 260 260 260 261 261 261 262 262 263 263 264 264 265 265 266 266 267 267 268 268 269 269 269 270 270 269 269 269 269 269 270 270 270
286 285 284 282 280 279 277 276 275 273 272 272 271 270 269 268 267 267 266 265 265 265 266 266 266 265 265 265 265 264 263 262 262 261 260 259 258 258 258 258 258 258 258 258 258 258 258 258 258 258 258 259 259 260 260 260 261 261 262 262 262 263 263 264 264 265 265 266 266 267 268 268 269 269 269 270 270 270 269 269 269 270 270 270 270
286 285 284 283 282 280 279 278 276 275 273 272 271 270 269 269 268 267 266 265 264 264 264 264 265 264 264 264 264 264 263 262 262 262 261 261 260 259 259 258 258 257 257 257 257 257 257 257 257 257 257 257 258 258 259 260 260 261 261 262 262 263 263 264 264 265 265 266 266 267 267 268 268 269 269 269 269 269 269 270 270 270 270 270 271
287 285 284 283 282 281 279 278 277 276 275 273 272 271 270 270 270 269 268 267 266 265 265 265 265 265 265 264 263 263 263 263 263 263 263 263 263 262 261 260 259 258 257 257 256 256 255 255 255 255 255 256 256 257 258 259 260 261 261 262 262 263 263 264 264 265 265 266 267 267 268 268 268 269 269 269 269 270 270 270 270 271 271 271 271
287 286 285 283 282 281 280 279 278 277 276 275 274 274 273 272 272 271 269 268 267 266 266 266 265 266 266 266 265 265 265 265 265 265 265 264 264 264 263 262 261 260 259 258 257 256 255 255 254 254 254 254 255 256 257 258 259 260 261 261 262 263 263 264 264 265 265 266 267 267 268 268 268 269 269 269 270 270 270 271 271 271 271 271 272
288 287 286 285 284 283 281 280 279 278 277 276 276 275 274 273 272 271 270 269 268 266 266 265 265 265 265 265 266 266 266 267 267 266 266 265 264 263 263 262 262 261 261 260 259 258 257 256 255 255 254 254 254 255 255 256 257 258 259 260 261 261 262 263 264 264 265 266 266 267 267 268 268 269 269 269 270 270 270 271 271 271 271 271 271
288 287 287 286 285 283 282 281 279 278 277 276 276 275 274 272 271 270 270 269 269 268 267 267 266 266 266 266 266 266 266 267 267 266 266 265 264 263 262 262 262 262 261 261 260 259 259 258 257 256 255 255 254 255 255 255 256 257 258 258 259 260 261 262 262 263 264 264 265 266 266 267 267 268 268 269 269 269 270 270 270 270 270 271 271
289 288 288 287 286 284 283 282 280 279 278 277 277 276 274 273 273 272 271 271 270 269 269 268 268 267 267 267 266 266 267 267 267 266 266 265 264 263 262 262 261 261 260 260 260 259 259 258 258 257 256 256 256 256 255 255 256 256 257 257 258 258 259 260 261 262 262 263 264 265 265 266 266 267 267 267 268 268 268 269 269 269 270 270 270
289 289 289 288 287 285 284 283 282 281 281 280 280 279 279 277 276 274 273 273 272 271 270 269 268 267 267 267 266 266 266 266 266 266 265 265 264 263 262 261 260 260 259 259 258 258 258 258 257 257 256 256 256 256 256 256 256 256 257 257 257 258 258 259 260 261 262 263 264 264 264 265 265 265 265 266 266 267 267 267 268 268 269 269 270
289 289 288 287 286 285 284 283 283 283 283 282 282 281 280 279 277 276 275 273 273 272 271 270 269 268 268 268 267 267 267 266 265 265 265 265 265 263 262 261 260 260 259 258 258 258 258 257 257 257 256 256 256 256 256 256 256 257 257 258 258 258 259 260 260 261 262 262 263 263 263 264 264 264 265 265 265 266 266 267 267 268 268 269 269
289 288 287 286 285 284 283 283 283 283 283 282 282 280 279 277 277 276 275 274 273 273 272 271 271 271 270 269 269 268 268 267 266 266 265 265 265 265 263 262 260 259 259 259 259 258 258 258 258 258 257 257 257 257 257 257 258 258 258 259 259 259 259 260 260 260 261 261 261 262 262 263 263 264 264 265 265 266 267 267 267 267 268 268 269
288 286 286 285 285 284 283 283 283 282 282 281 281 279 278 278 278 277 276 276 275 274 274 273 273 272 271 270 269 269 269 269 268 267 266 265 265 265 264 263 262 261 260 260 259 259 259 259 259 258 258 258 258 258 258 258 258 259 259 259 259 259 259 259 259 260 260 260 261 261 262 262 263 264 265 266 266 267 267 267 267 267 268 268 269
289 287 286 286 285 284 284 284 283 283 282 282 281 280 281 281 279 279 279 278 277 276 275 274 274 273 272 272 271 270 270 270 269 269 268 266 265 264 264 264 264 263 262 261 261 260 259 259 259 259 259 259 258 259 259 259 259 259 260 260 260 260 259 260 260 260 261 261 261 261 262 263 264 265 266 266 267 267 267 268 268 268 268 269 269
291 290 289 289 288 287 286 285 284 284 284 283 283 283 283 282 281 280 280 279 278 277 276 275 274 273 273 273 272 271 271 270 270 269 268 268 266 265 265 264 264 264 264 263 262 261 260 259 259 259 259 259 259 259 259 259 259 259 260 260 260 261 261 261 261 261 261 261 261 262 262 263 264 265 265 266 266 266 267 267 268 268 268 269 269
294 293 292 291 290 289 288 287 286 286 285 285 285 284 283 282 281 282 281 280 279 278 277 276 275 274 273 272 272 271 271 270 270 269 268 268 267 266 265 265 264 264 264 263 263 262 261 260 260 260 259 259 259 259 259 259 259 260 260 261 261 261 261 260 260 260 260 261 261 262 262 263 264 264 264 265 265 265 266 267 267 268 269 269 270
297 296 294 292 291 290 290 289 288 287 287 286 285 284 282 282 283 282 281 281 280 279 278 277 275 274 273 272 271 271 271 270 270 269 268 268 267 266 265 265 264 263 263 263 263 262 262 262 261 261 260 260 260 259 259 260 260 261 261 261 261 261 261 261 260 260 260 261 262 262 263 263 263 264 264 265 265 266 266 267 268 269 269 270 270
299 297 295 293 293 292 291 290 289 288 288 287 285 284 283 284 284 283 283 282 282 281 280 278 276 275 273 272 272 272 271 271 270 270 269 268 267 266 266 265 264 263 263 263 263 263 263 262 262 262 261 261 261 261 261 261 261 261 261 261 261 261 262 262 262 263 263 262 263 263 264 265 265 265 265 266 266 267 267 267 268 269 269 270 271
298 297 296 295 294 293 292 291 291 290 289 288 287 286 286 286 286 285 284 283 282 282 280 279 277 276 275 274 274 274 273 272 272 271 270 269 268 267 266 265 264 263 263 263 263 263 263 263 262 262 262 262 262 262 262 261 261 261 261 261 261 262 262 263 263 264 264 264 264 264 265 265 266 266 266 266 267 267 267 268 269 269 270 271 271
300 299 298 297 296 295 294 294 294 293 292 291 290 289 289 288 287 286 285 284 283 282 280 279 278 278 277 276 275 275 275 274 273 272 271 270 269 268 267 265 264 264 264 263 263 263 263 263 263 263 263 262 262 262 262 262 262 262 262 262 263 263 263 263 264 264 264 264 263 263 263 264 265 266 266 267 268 268 269 269 270 270 270 269 269
Height
10461 10461 10460 10461 10461 10460 10460 10460 10458 10457 10456 10456 10456 10455 10454 10454 10455 10455 10454 10453 10454 10456 10458 10459 10460 10460 10461 10462 10463 10463 10464 10467 10469 10470 10472 10473 10475 10477 10477 10476 10476 10477 10477 10477 10476 10476 10477 10480 10484 10487 10489 10491 10493 10495 10497 10499 10500 10500 10499 10499 10501 10502 10503 10505 10506 10509 10512 10514 10516 10518 10520 10520 10521 10523 10524 10527 10530 10533 10535 10537 10538 10539 10540 10542 10544
10453 10452 10451 10450 10449 10447 10447 10447 10446 10445 10445 10446 10445 10443 10442 10444 10445 10445 10443 10444 10445 10446 10447 10448 10449 10447 10447 10449 10450 10451 10453 10455 10456 10455 10456 10458 10460 10462 10461 10459 10459 10459 10461 10462 10463 10465 10466 10468 10472 10475 10477 10479 10481 10482 10483 10484 10483 10482 10482 10483 10485 10487 10489 10491 10493 10496 10498 10500 10502 10505 10505 10506 10507 10509 10510 10513 10516 10519 10521 10523 10525 10525 10526 10528 10529
10442 10441 10440 10439 10437 10436 10435 10434 10434 10433 10432 10432 10431 10431 10431 10433 10435 10434 10433 10434 10435 10435 10435 10435 10434 10434 10435 10438 10439 10440 10442 10442 10442 10442 10443 10445 10446 10446 10446 10444 10443 10445 10447 10449 10451 10454 10455 10456 10458 10461 10464 10466 10466 10466 10466 10466 10465 10464 10466 10469 10471 10474 10476 10477 10479 10482 10483 10485 10488 10490 10490 10492 10493 10494 10496 10498 10501 10504 10507 10509 10511 10512 10512 10513 10514
10430 10429 10429 10428 10427 10426 10425 10425 10424 10422 10420 10419 10418 10419 10421 10422 10422 10421 10421 10422 10423 10422 10422 10421 10421 10422 10425 10427 10427 10428 10429 10428 10428 10429 10430 10430 10430 10431 10431 10430 10430 10433 10435 10438 10439 10441 10442 10443 10444 10446 10448 10449 10449 10449 10448 10448 10448 10450 10453 10456 10458 10460 10462 10464 10465 10466 10467 10469 10473 10474 10475 10477 10479 10479 10481 10483 10485 10488 10491 10493 10495 10497 10498 10499 10500
10419 10419 10418 10418 10417 10416 10416 10415 10414 10413 10411 10408 10408 10410 10411 10410 10408 10407 10407 10408 10410 10409 10409 10409 10410 10412 10414 10415 10414 10415 10415 10414 10415 10415 10414 10415 10415 10416 10417 10418 10420 10422 10423 10425 10425 10425 10427 10429 10429 10430 10432 10433 10433 10433 10432 10433 10435 10437 10440 10442 10444 10446 10448 10449 10449 10449 10451 10454 10457 10458 10460 10463 10463 10464 10466 10468 10469 10472 10475 10477 10479 10481 10483 10484 10485
10410 10409 10408 10408 10407 10406 10405 10404 10403 10402 10400 10398 10399 10401 10400 10399 10397 10396 10397 10398 10398 10397 10396 10397 10398 10400 10401 10402 10402 10402 10403 10402 10402 10401 10400 10401 10402 10403 10406 10408 10409 10409 10410 10410 10410 10410 10411 10414 10415 10416 10417 10418 10419 10419 10419 10421 10422 10423 10426 10428 10430 10432 10433 10433 10433 10435 10437 10439 10441 10443 10446 10447 10448 10449 10450 10453 10454 10456 10458 10461 10463 10465 10467 10468 10469
10402 10400 10398 10397 10396 10395 10394 10393 10393 10391 10389 10388 10389 10389 10389 10388 10388 10388 10387 10387 10387 10385 10384 10385 10386 10387 10388 10389 10389 10390 10391 10391 10388 10387 10388 10389 10390 10392 10394 10396 10396 10396 10396 10397 10397 10397 10397 10399 10402 10402 10403 10404 10405 10406 10407 10407 10408 10410 10413 10415 10416 10417 10418 10418 10419 10421 10423 10424 10426 10429 10430 10432 10434 10434 10435 10437 10439 10440 10442 10444 10447 10449 10451 10452 10454
10393 10390 10387 10386 10385 10384 10382 10381 10381 10379 10378 10378 10377 10377 10377 10377 10377 10377 10377 10376 10376 10374 10374 10374 10375 10376 10376 10376 10377 10378 10378 10377 10374 10374 10375 10376 10378 10381 10381 10382 10383 10383 10383 10383 10384 10384 10384 10386 10388 10389 10390 10391 10392 10393 10393 10393 10395 10398 10400 10401 10402 10402 10404 10405 10407 10408 10409 10410 10413 10414 10415 10417 10419 10420 10421 10423 10424 10425 10426 10428 10431 10433 10435 10437 10438
10380 10380 10377 10374 10372 10372 10371 10369 10368 10367 10366 10366 10365 10365 10365 10365 10365 10365 10365 10364 10363 10363 10363 10363 10363 10364 10365 10365 10365 10365 10364 10363 10362 10361 10362 10364 10365 10367 10367 10368 10369 10370 10370 10371 10371 10372 10372 10373 10374 10376 10377 10377 10378 10379 10379 10380 10383 10385 10386 10387 10388 10389 10392 10394 10395 10395 10396 10397 10398 10399 10400 10402 10404 10406 10407 10408 10410 10412 10412 10413 10415 10417 10420 10422 10424
10366 10365 10365 10363 10361 10359 10359 10357 10355 10354 10354 10353 10353 10352 10352 10352 10353 10353 10352 10351 10351 10351 10351 10351 10351 10352 10353 10354 10353 10352 10351 10350 10350 10350 10350 10351 10352 10352 10353 10354 10354 10356 10357 10358 10359 10360 10361 10361 10362 10363 10362 10362 10364 10365 10366 10367 10369 10370 10372 10374 10376 10378 10380 10382 10382 10382 10383 10383 10384 10385 10386 10387 10390 10392 10393 10395 10397 10398 10398 10399 10400 10402 10405 10407 10408
10350 10350 10349 10350 10349 10347 10346 10345 10342 10340 10340 10340 10340 10339 10339 10339 10340 10340 10339 10338 10338 10338 10338 10339 10338 10339 10341 10340 10340 10339 10337 10337 10338 10338 10337 10337 10338 10338 10338 10339 10341 10342 10344 10345 10346 10347 10347 10348 10349 10349 10348 10348 10349 10351 10352 10353 10355 10357 10360 10363 10365 10367 10368 10369 10369 10369 10369 10370 10371 10372 10373 10374 10376 10377 10378 10381 10384 10384 10385 10386 10387 10388 10390 10392 10393
10335 10334 10333 10333 10333 10333 10332 10332 10330 10328 10326 10325 10325 10326 10326 10327 10327 10327 10326 10326 10326 10325 10326 10326 10326 10326 10326 10326 10327 10325 10324 10325 10326 10325 10324 10324 10324 10324 10324 10326 10327 10329 10330 10332 10332 10331 10332 10333 10335 10336 10336 10336 10336 10336 10339 10341 10343 10346 10348 10350 10352 10353 10354 10355 10355 10354 10355 10358 10358 10359 10360 10361 10361 10362 10365 10367 10369 10369 10371 10373 10373 10374 10377 10378 10379
10322 10320 10318 10316 10314 10315 10316 10316 10317 10316 10314 10312 10310 10311 10312 10313 10314 10314 10313 10312 10313 10313 10313 10313 10312 10313 10313 10313 10314 10312 10312 10313 10313 10312 10311 10311 10310 10310 10311 10313 10314 10315 10316 10318 10317 10315 10316 10319 10321 10323 10324 10324 10323 10323 10325 10329 10331 10333 10335 10336 10338 10339 10340 10341 10341 10341 10343 10345 10345 10345 10347 10347 10347 10349 10351 10352 10354 10355 10356 10358 10359 10361 10363 10364 10365
10310 10308 10306 10303 10299 10297 10297 10298 10300 10301 10300 10299 10297 10297 10297 10298 10299 10300 10300 10299 10299 10300 10300 10299 10299 10298 10298 10299 10300 10300 10300 10300 10301 10300 10299 10298 10297 10297 10298 10299 10300 10302 10302 10303 10302 10301 10303 10306 10307 10309 10311 10311 10310 10309 10311 10314 10317 10319 10321 10322 10324 10325 10326 10327 10327 10328 10329 10331 10331 10332 10333 10333 10334 10335 10336 10338 10339 10340 10341 10343 10345 10347 10348 10349 10351
10296 10294 10292 10290 10287 10284 10282 10281 10281 10282 10283 10282 10282 10283 10282 10282 10282 10284 10284 10284 10284 10285 10285 10285 10285 10284 10284 10285 10285 10286 10286 10286 10287 10286 10286 10285 10285 10284 10285 10286 10287 10288 10288 10288 10288 10289 10292 10293 10293 10295 10296 10296 10297 10296 10297 10299 10302 10305 10306 10308 10309 10311 10312 10312 10313 10314 10316 10317 10318 10319 10319 10319 10319 10320 10322 10323 10324 10325 10327 10328 10330 10332 10333 10335 10337
10283 10280 10277 10274 10274 10272 10269 10266 10264 10265 10265 10265 10264 10265 10265 10265 10265 10267 10267 10268 10268 10269 10269 10269 10269 10269 10269 10270 10270 10270 10270 10271 10271 10271 10272 10272 10272 10273 10274 10274 10275 10275 10275 10275 10275 10276 10278 10278 10279 10281 10281 10281 10283 10283 10283 10285 10288 10291 10293 10294 10295 10296 10297 10298 10299 10301 10302 10303 10304 10305 10305 10305 10305 10306 10308 10309 10309 10311 10312 10313 10315 10316 10318 10320 10322
10268 10266 10262 10259 10258 10257 10256 10253 10250 10249 10249 10249 10248 10247 10248 10248 10248 10249 10250 10251 10252 10253 10254 10253 10253 10253 10253 10254 10255 10255 10255 10255 10256 10256 10257 10259 10260 10262 10262 10262 10262 10262 10261 10260 10260 10262 10263 10265 10266 10267 10268 10268 10269 10269 10270 10271 10273 10277 10279 10280 10281 10282 10282 10283 10285 10288 10288 10289 10290 10291 10291 10291 10291 10292 10293 10294 10295 10296 10297 10298 10300 10300 10302 10304 10306
10252 10251 10248 10245 10243 10241 10240 10239 10237 10235 10233 10232 10232 10231 10231 10231 10232 10232 10233 10235 10236 10237 10238 10238 10237 10237 10237 10238 10239 10239 10239 10240 10240 10241 10243 10245 10248 10249 10248 10248 10248 10247 10246 10246 10246 10247 10249 10250 10253 10254 10255 10255 10256 10256 10257 10257 10259 10263 10265 10266 10267 10267 10269 10270 10271 10273 10274 10275 10276 10277 10277 10277 10277 10278 10279 10280 10281 10282 10283 10284 10285 10285 10286 10288 10290
10238 10236 10234 10231 10228 10226 10224 10222 10222 10221 10220 10218 10216 10215 10215 10215 10216 10216 10217 10218 10219 10220 10221 10221 10221 10221 10221 10222 10222 10223 10223 10223 10224 10226 10228 10231 10233 10233 10233 10233 10232 10231 10232 10232 10232 10232 10233 10235 10237 10239 10241 10242 10243 10243 10243 10244 10246 10248 10252 10253 10253 10254 10255 10256 10257 10259 10260 10261 10262 10263 10263 10263 10264 10264 10266 10266 10267 10268 10269 10269 10270 10270 10271 10272 10273
10222 10221 10219 10217 10214 10212 10210 10208 10206 10205 10205 10204 10202 10200 10199 10199 10199 10200 10201 10202 10202 10203 10204 10204 10203 10203 10204 10205 10206 10206 10206 10207 10208 10210 10212 10215 10216 10216 10217 10217 10217 10217 10217 10218 10218 10218 10218 10219 10220 10223 10226 10228 10230 10230 10230 10230 10232 10234 10237 10240 10240 10240 10241 10242 10244 10245 10247 10248 10248 10248 10248 10249 10250 10252 10253 10253 10253 10254 10255 10255 10256 10255 10256 10256 10257
10204 10203 10202 10201 10199 10198 10196 10194 10192 10190 10188 10187 10186 10184 10183 10182 10182 10183 10184 10186 10186 10187 10187 10188 10188 10187 10187 10187 10188 10189 10189 10190 10192 10194 10196 10198 10199 10200 10201 10201 10201 10202 10202 10202 10203 10203 10203 10203 10204 10207 10210 10213 10215 10216 10216 10216 10217 10219 10222 10225 10226 10226 10227 10228 10229 10231 10233 10234 10233 10233 10234 10236 10237 10238 10240 10240 10240 10241 10241 10241 10241 10241 10241 10241 10242
10190 10188 10186 10185 10183 10182 10182 10180 10179 10176 10174 10172 10169 10167 10166 10165 10164 10165 10166 10167 10169 10170 10171 10172 10172 10172 10171 10171 10171 10172 10172 10173 10175 10177 10179 10180 10181 10183 10184 10185 10187 10187 10186 10186 10187 10187 10187 10187 10188 10191 10194 10197 10200 10202 10202 10202 10202 10204 10206 10209 10211 10211 10211 10212 10214 10216 10218 10219 10219 10219 10221 10221 10222 10224 10225 10226 10227 10227 10227 10227 10226 10226 10226 10226 10227
10178 10176 10174 10172 10170 10169 10168 10166 10164 10161 10159 10157 10155 10151 10148 10147 10147 10147 10147 10149 10151 10153 10154 10155 10155 10155 10155 10155 10155 10155 10155 10157 10158 10159 10161 10162 10163 10165 10166 10168 10171 10171 10170 10171 10171 10170 10170 10170 10172 10174 10177 10180 10183 10185 10187 10187 10188 10188 10190 10192 10195 10195 10195 10196 10198 10200 10202 10203 10204 10205 10206 10206 10207 10208 10210 10211 10212 10213 10213 10213 10212 10212 10211 10211 10211
10165 10164 10161 10159 10158 10157 10155 10152 10149 10145 10142 10141 10140 10137 10134 10132 10131 10130 10130 10131 10133 10134 10136 10137 10138 10138 10138 10138 10138 10138 10139 10140 10141 10142 10143 10144 10145 10147 10148 10150 10152 10153 10154 10155 10154 10153 10153 10154 10155 10157 10159 10161 10164 10167 10169 10172 10173 10173 10174 10176 10178 10179 10179 10181 10182 10184 10185 10186 10188 10190 10191 10191 10191 10193 10195 10196 10197 10198 10199 10199 10198 10197 10196 10195 10195
10152 10150 10148 10145 10143 10142 10141 10139 10135 10131 10128 10125 10124 10123 10121 10119 10118 10117 10117 10117 10117 10117 10118 10118 10119 10121 10121 10121 10121 10122 10122 10123 10123 10124 10125 10126 10127 10129 10130 10132 10133 10135 10136 10137 10137 10137 10137 10137 10138 10140 10141 10143 10145 10148 10151 10154 10156 10157 10158 10159 10161 10163 10164 10165 10166 10167 10168 10169 10171 10173 10174 10175 10175 10178 10179 10181 10182 10182 10183 10184 10183 10182 10180 10178 10178
10138 10135 10132 10129 10127 10125 10125 10124 10121 10118 10115 10112 10110 10108 10107 10106 10105 10103 10103 10103 10102 10102 10102 10102 10103 10104 10104 10104 10104 10105 10105 10106 10106 10107 10108 10108 10110 10111 10112 10114 10115 10117 10118 10119 10120 10120 10120 10121 10122 10123 10124 10126 10128 10129 10132 10135 10137 10139 10141 10143 10145 10146 10147 10148 10149 10150 10151 10152 10153 10155 10157 10158 10160 10162 10164 10165 10165 10166 10167 10168 10167 10166 10165 10163 10161
10125 10121 10118 10114 10112 10110 10109 10107 10105 10103 10101 10099 10096 10094 10093 10092 10090 10087 10086 10087 10087 10087 10086 10086 10087 10088 10089 10088 10088 10088 10089 10089 10090 10090 10091 10091 10092 10093 10095 10096 10097 10099 10101 10102 10102 10102 10103 10104 10106 10107 10109 10110 10111 10112 10114 10116 10118 10120 10122 10124 10126 10128 10129 10131 10132 10133 10134 10135 10136 10138 10140 10141 10142 10144 10146 10148 10148 10149 10149 10150 10150 10149 10148 10146 10144
10109 10107 10105 10102 10099 10097 10094 10092 10089 10087 10086 10083 10081 10080 10079 10077 10075 10072 10070 10071 10071 10071 10070 10070 10070 10071 10072 10072 10073 10073 10073 10073 10074 10075 10075 10075 10075 10076 10078 10079 10080 10082 10083 10085 10085 10086 10086 10088 10090 10091 10092 10093 10095 10096 10098 10099 10100 10101 10103 10105 10107 10108 10109 10111 10113 10115 10116 10117 10118 10120 10122 10124 10124 10125 10128 10129 10131 10131 10131 10131 10131 10130 10129 10128 10127
10089 10088 10087 10086 10085 10083 10080 10078 10075 10073 10071 10068 10066 10065 10064 10062 10061 10059 10057 10055 10055 10055 10055 10054 10054 10054 10054 10055 10056 10057 10058 10058 10058 10059 10059 10059 10059 10060 10061 10062 10063 10064 10066 10067 10068 10069 10070 10072 10074 10075 10076 10077 10078 10080 10081 10082 10082 10083 10084 10086 10087 10089 10091 10093 10095 10096 10097 10098 10100 10101 10103 10104 10105 10106 10108 10111 10113 10113 10113 10113 10112 10111 10111 10110 10111
10071 10070 10068 10066 10066 10065 10064 10062 10060 10058 10056 10054 10051 10048 10047 10046 10045 10044 10043 10041 10041 10040 10039 10038 10038 10038 10039 10040 10040 10041 10041 10042 10042 10042 10043 10043 10044 10044 10045 10046 10047 10047 10049 10050 10050 10051 10053 10055 10056 10058 10059 10061 10062 10063 10065 10065 10065 10066 10067 10068 10070 10072 10073 10075 10077 10078 10080 10081 10081 10082 10084 10085 10086 10087 10090 10093 10094 10094 10095 10094 10093 10093 10093 10093 10094
10056 10054 10052 10051 10048 10047 10045 10044 10042 10041 10039 10038 10036 10033 10031 10030 10029 10028 10027 10026 10026 10026 10025 10023 10022 10021 10022 10023 10025 10026 10026 10026 10026 10025 10025 10026 10027 10028 10029 10030 10030 10031 10031 10032 10033 10035 10036 10038 10039 10041 10042 10044 10045 10046 10047 10047 10048 10049 10050 10052 10053 10055 10057 10058 10060 10061 10062 10063 10063 10064 10065 10066 10068 10070 10072 10074 10075 10076 10076 10075 10075 10075 10075 10076 10077
10040 10038 10037 10036 10033 10030 10028 10027 10024 10022 10021 10020 10019 10018 10016 10014 10013 10012 10010 10010 10009 10009 10009 10008 10006 10005 10005 10005 10007 10009 10010 10011 10010 10010 10009 10009 10009 10011 10012 10012 10012 10013 10014 10016 10017 10018 10019 10021 10022 10024 10025 10027 10028 10029 10029 10029 10030 10032 10033 10035 10037 10038 10040 10041 10043 10044 10045 10046 10046 10047 10048 10049 10050 10051 10053 10055 10056 10057 10057 10057 10057 10057 10058 10059 10061
10022 10022 10021 10020 10017 10015 10013 10012 10009 10006 10004 10002 10001 10001 10001 10000 9999 9998 9996 9995 9993 9991 9990 9989 9988 9988 9988 9988 9989 9990 9991 9991 9992 9993 9994 9994 9993 9993 9993 9994 9994 9995 9996 9998 10000 10001 10003 10004 10005 10007 10008 10009 10010 10010 10010 10011 10013 10014 10016 10018 10019 10021 10023 10025 10026 10027 10028 10029 10029 10030 10030 10031 10032 10033 10034 10036 10037 10038 10038 10038 10039 10039 10040 10042 10043
10006 10005 10004 10002 10000 9999 9998 9997 9995 9992 9989 9987 9985 9985 9985 9985 9984 9984 9982 9981 9979 9975 9973 9972 9971 9971 9971 9971 9971 9972 9973 9972 9972 9973 9975 9976 9977 9977 9976 9977 9977 9978 9979 9981 9982 9983 9985 9987 9989 9990 9992 9993 9993 9992 9992 9993 9995 9997 9998 10000 10002 10004 10006 10007 10009 10010 10011 10012 10012 10012 10013 10014 10014 10015 10016 10017 10018 10018 10018 10019 10020 10021 10023 10024 10025
9991 9989 9988 9986 9984 9983 9982 9980 9978 9976 9974 9972 9971 9971 9971 9970 9969 9968 9967 9966 9964 9961 9959 9958 9956 9955 9955 9955 9955 9954 9954 9954 9954 9954 9956 9957 9958 9959 9959 9960 9961 9962 9963 9963 9964 9966 9968 9969 9971 9973 9975 9976 9976 9975 9975 9976 9977 9979 9981 9983 9984 9986 9988 9990 9991 9992 9993 9994 9995 9995 9996 9996 9997 9997 9998 9998 9998 9998 9999 10000 10002 10004 10005 10005 10006
9975 9973 9972 9970 9968 9968 9967 9965 9963 9960 9957 9956 9957 9957 9957 9956 9954 9953 9952 9950 9948 9946 9945 9944 9941 9939 9938 9939 9938 9938 9937 9937 9938 9938 9939 9939 9939 9940 9941 9942 9943 9944 9945 9946 9947 9949 9950 9952 9954 9956 9957 9959 9959 9958 9958 9959 9961 9962 9965 9967 9968 9969 9971 9973 9974 9975 9975 9976 9976 9977 9978 9978 9978 9979 9979 9979 9979 9979 9980 9981 9983 9984 9985 9986 9987
9957 9957 9956 9955 9953 9953 9952 9950 9948 9945 9942 9941 9942 9942 9943 9942 9940 9937 9935 9934 9932 9932 9930 9928 9926 9924 9922 9921 9921 9921 9920 9920 9921 9922 9923 9923 9922 9922 9922 9923 9924 9925 9926 9928 9929 9931 9933 9935 9937 9939 9941 9942 9942 9942 9942 9944 9945 9946 9948 9951 9953 9952 9954 9956 9956 9957 9957 9958 9958 9959 9959 9960 9960 9960 9960 9960 9960 9961 9962 9963 9964 9965 9966 9968 9968
9943 9942 9941 9939 9938 9937 9937 9935 9933 9931 9928 9928 9929 9929 9929 9928 9926 9923 9920 9918 9917 9917 9915 9912 9910 9909 9908 9906 9905 9904 9904 9903 9903 9904 9905 9906 9906 9906 9906 9906 9906 9907 9908 9909 9911 9913 9916 9918 9920 9922 9924 9925 9926 9926 9928 9929 9930 9931 9933 9936 9937 9936 9937 9939 9939 9940 9940 9940 9941 9942 9942 9943 9943 9942 9942 9942 9943 9944 9945 9946 9947 9947 9948 9950 9949
9928 9928 9928 9926 9923 9922 9921 9919 9918 9917 9915 9915 9916 9917 9916 9914 9912 9910 9907 9904 9902 9901 9899 9898 9896 9894 9893 9892 9891 9889 9889 9889 9888 9888 9889 9890 9890 9890 9890 9890 9891 9892 9892 9893 9895 9897 9899 9901 9903 9905 9907 9909 9909 9911 9913 9914 9915 9916 9917 9921 9922 9922 9922 9923 9923 9923 9924 9925 9926 9927 9927 9927 9927 9925 9925 9925 9926 9928 9929 9929 9929 9930 9932 9933 9930
9915 9913 9914 9913 9910 9908 9906 9904 9903 9902 9901 9901 9902 9902 9901 9900 9898 9895 9892 9890 9888 9886 9886 9885 9882 9880 9879 9878 9876 9875 9874 9874 9874 9874 9874 9875 9876 9876 9876 9876 9877 9877 9878 9879 9880 9881 9883 9885 9887 9888 9891 9892 9893 9894 9896 9898 9900 9900 9902 9905 9907 9907 9907 9907 9907 9907 9909 9910 9912 9913 9913 9912 9910 9909 9910 9910 9910 9912 9913 9913 9913 9915 9916 9915 9911
9903 9901 9901 9900 9897 9893 9891 9890 9888 9887 9887 9886 9887 9887 9885 9884 9881 9879 9878 9876 9874 9873 9873 9871 9868 9867 9865 9864 9862 9862 9861 9861 9861 9860 9860 9860 9861 9862 9862 9862 9863 9864 9865 9866 9866 9867 9869 9870 9872 9874 9875 9877 9877 9878 9880 9882 9883 9884 9885 9888 9891 9892 9892 9893 9894 9894 9895 9896 9897 9898 9897 9895 9893 9894 9894 9895 9895 9896 9897 9899 9899 9899 9899 9898 9897
9891 9890 9889 9889 9886 9881 9878 9877 9876 9874 9873 9873 9874 9873 9871 9868 9866 9865 9864 9863 9862 9861 9859 9856 9854 9854 9853 9851 9849 9849 9848 9848 9848 9848 9847 9847 9847 9848 9848 9849 9850 9850 9851 9852 9853 9854 9855 9856 9858 9859 9861 9862 9862 9863 9865 9866 9868 9868 9869 9873 9877 9878 9879 9880 9881 9881 9882 9882 9881 9881 9880 9877 9877 9878 9879 9879 9880 9881 9882 9885 9886 9885 9884 9883 9883
9880 9878 9876 9876 9874 9870 9867 9866 9865 9864 9862 9861 9862 9861 9858 9855 9854 9852 9852 9851 9850 9848 9845 9843 9842 9841 9840 9839 9837 9836 9835 9835 9835 9835 9835 9834 9834 9834 9835 9836 9837 9838 9838 9839 9840 9841 9842 9843 9844 9845 9847 9848 9848 9849 9851 9853 9854 9855 9855 9858 9862 9865 9865 9866 9867 9867 9867 9867 9866 9866 9864 9862 9861 9862 9863 9864 9866 9867 9869 9872 9873 9871 9870 9868 9868
9870 9867 9865 9864 9863 9860 9856 9855 9854 9854 9852 9851 9850 9848 9845 9843 9842 9839 9838 9838 9837 9835 9832 9831 9831 9829 9827 9826 9825 9824 9823 9822 9822 9822 9823 9823 9822 9822 9822 9823 9824 9825 9826 9827 9828 9829 9830 9830 9831 9832 9833 9834 9835 9837 9838 9840 9841 9842 9842 9844 9847 9850 9852 9852 9852 9853 9853 9853 9852 9851 9850 9847 9846 9847 9849 9851 9853 9854 9855 9856 9856 9856 9856 9855 9855
9858 9856 9855 9853 9852 9850 9847 9845 9843 9842 9841 9839 9837 9836 9834 9831 9829 9827 9826 9826 9824 9822 9822 9821 9819 9817 9815 9814 9813 9813 9812 9811 9811 9810 9810 9810 9811 9810 9810 9810 9811 9812 9813 9814 9815 9816 9817 9818 9818 9819 9820 9821 9823 9824 9825 9826 9828 9829 9829 9830 9832 9835 9838 9839 9839 9840 9840 9840 9839 9837 9834 9833 9834 9836 9837 9838 9839 9840 9839 9839 9839 9839 9841 9842 9842
9848 9845 9843 9842 9840 9838 9837 9835 9833 9832 9830 9828 9825 9825 9822 9819 9817 9817 9816 9814 9812 9811 9811 9810 9808 9806 9804 9803 9802 9802 9801 9800 9800 9799 9799 9799 9799 9799 9799 9799 9799 9800 9800 9801 9802 9804 9804 9805 9806 9806 9808 9810 9811 9812 9813 9813 9814 9815 9816 9817 9818 9821 9824 9825 9826 9826 9826 9825 9823 9822 9821 9821 9822 9823 9824 9825 9825 9824 9823 9823 9823 9824 9826 9827 9827
9838 9836 9833 9831 9829 9827 9825 9824 9823 9821 9820 9817 9816 9815 9812 9808 9807 9807 9805 9803 9802 9801 9800 9799 9797 9796 9794 9793 9792 9791 9790 9790 9789 9789 9788 9788 9788 9788 9788 9788 9788 9788 9788 9789 9790 9791 9792 9793 9794 9795 9797 9798 9798 9799 9799 9800 9801 9802 9803 9805 9806 9807 9809 9810 9811 9811 9811 9809 9808 9807 9809 9810 9809 9809 9809 9810 9810 9810 9810 9809 9809 9810 9811 9812 9812
9829 9827 9824 9821 9819 9817 9815 9814 9813 9811 9809 9808 9806 9805 9802 9800 9799 9798 9795 9793 9792 9791 9789 9788 9786 9785 9784 9783 9782 9781 9780 9779 9779 9778 9778 9778 9777 9777 9777 9778 9778 9777 9777 9778 9778 9779 9781 9782 9783 9784 9785 9785 9786 9786 9787 9788 9790 9790 9791 9791 9792 9792 9793 9794 9795 9796 9797 9798 9796 9794 9795 9796 9796 9795 9795 9795 9796 9797 9797 9797 9797 9797 9798 9798 9799
9820 9817 9814 9812 9810 9808 9806 9804 9803 9802 9800 9799 9797 9795 9793 9792 9790 9788 9785 9783 9781 9780 9779 9777 9775 9775 9774 9773 9772 9771 9770 9769 9769 9768 9768 9768 9768 9768 9768 9768 9767 9767 9767 9768 9768 9769 9770 9771 9772 9772 9773 9773 9773 9774 9776 9778 9779 9778 9778 9778 9779 9779 9780 9780 9781 9782 9785 9787 9785 9783 9782 9781 9782 9782 9781 9782 9783 9783 9784 9785 9785 9785 9786 9787 9787
9811 9808 9806 9804 9802 9799 9797 9795 9794 9793 9791 9789 9786 9784 9783 9782 9780 9778 9775 9773 9771 9770 9769 9767 9765 9765 9764 9763 9762 9761 9760 9759 9759 9758 9758 9758 9758 9758 9758 9758 9758 9757 9758 9758 9758 9759 9760 9760 9760 9761 9762 9762 9762 9763 9764 9765 9765 9765 9766 9767 9767 9768 9769 9770 9770 9772 9774 9775 9774 9773 9771 9769 9768 9768 9768 9769 9769 9770 9772 9773 9773 9774 9774 9775 9775
9802 9799 9797 9795 9793 9790 9788 9786 9785 9783 9781 9778 9776 9774 9774 9773 9771 9768 9766 9764 9762 9761 9760 9758 9756 9755 9754 9754 9753 9751 9750 9750 9749 9749 9749 9748 9748 9748 9748 9748 9748 9748 9748 9749 9749 9749 9750 9750 9749 9750 9751 9751 9751 9752 9752 9752 9753 9753 9755 9755 9756 9757 9758 9759 9761 9762 9762 9761 9761 9760 9759 9758 9757 9756 9756 9756 9756 9758 9760 9760 9761 9761 9761 9762 9761